Location: Bergnerzell
(49.1816°N, 10.2565°E)
Time: 12:06:01
(UTC+00:00)

NOAA 16 DEB - Visible Passes

Search period start: 15 March 2026 00:00
Search period end: 25 March 2026 00:00
Orbit: 785 x 829 km, 98.8° (Epoch: 7 March)

Date Brightness Start Highest point End Pass type
(mag) Time Alt. Az. Time Alt. Az. Time Alt. Az.
15 Mar ? 22:39:42 17° N 22:39:42 17° N 22:40:49 10° N visible
16 Mar ? 22:14:39 17° N 22:14:39 17° N 22:15:57 10° N visible
16 Mar ? 23:55:43 11° NNW 23:55:43 11° NNW 23:55:53 10° NNW visible
17 Mar ? 21:49:36 16° NNE 21:49:36 16° NNE 21:50:54 10° N visible
17 Mar ? 23:30:40 14° NNW 23:30:40 14° NNW 23:31:27 10° NNW visible
18 Mar ? 21:24:32 13° NNE 21:24:32 13° NNE 21:25:35 10° NNE visible
18 Mar ? 23:05:36 18° NNW 23:05:36 18° NNW 23:06:50 10° NNW visible
19 Mar ? 22:40:33 20° N 22:40:33 20° N 22:42:05 10° N visible
20 Mar ? 22:15:29 20° N 22:15:29 20° N 22:17:12 10° N visible
20 Mar ? 23:56:33 13° NNW 23:56:33 13° NNW 23:57:07 10° NNW visible
21 Mar ? 21:50:25 18° NNE 21:50:25 18° NNE 21:52:09 10° N visible
21 Mar ? 23:31:29 17° NNW 23:31:29 17° NNW 23:32:39 10° NNW visible
22 Mar ? 21:25:20 14° NNE 21:25:20 14° NNE 21:26:50 10° NNE visible
22 Mar ? 23:06:24 21° NNW 23:06:24 21° NNW 23:08:02 10° NNW visible
23 Mar ? 21:00:16 10° NE 21:00:16 10° NE 21:00:40 10° NE visible
23 Mar ? 22:41:19 23° N 22:41:19 23° N 22:43:17 10° N visible
24 Mar ? 00:22:23 10° NW 00:22:23 10° NW 00:22:30 10° NW visible
24 Mar ? 22:16:14 22° NNE 22:16:14 22° NNE 22:18:23 10° N visible
24 Mar ? 23:57:18 15° NW 23:57:18 15° NW 23:58:17 10° NNW visible
